STARLINK-30527

operational
NORAD ID: 58007 Int'l Des: 2023-153 Owner: SPXS Country: US Constellation: starlink
LEOCIRCULAR

关于 STARLINK-30527

正在加载描述...

实时位置

正在加载3D地球...

即将过境

高度历史

Altitude vs Time

uPlot chart will show altitude changes over time

两行轨道根数

1 58007U 23153S 25251.41836497 -.00002642 00000-0 -86555-4 0 9990
2 58007 43.0018 147.7505 0000841 309.5704 50.5073 15.27574498109583
Epoch: Sep 8, 2025 • Age: 24 hours

当前状态

高度 484.6 km
速度 7.63 km/s
星下点 32.26°N, 138.95°E
发射日期 Oct 5, 2023
运行时间 1.9 years
类型 internet

技术详情

分类 Payload
质量 730.00 kg
干质量 700.00 kg
总质量 730.00 kg
长度 0.30 m
直径 4.10 m
跨度 29.00 m
形状 Box + pan
制造商 SPXS
平台类型 Starlink V2M
阶段状态 In Orbit
所有者/国家 SPXS/US

大型星座

Loading constellations...